This demonstration page uses our WeatherBlox Daily Observations layout. Learn more.

Left ArrowRight Arrow

31.84235, -102.49876

Hourly Observations for March 27, 2018

Temp ( °F °C ) Dew Point ( °F °C ) Humidity (%) Winds ( mph kmh ) Pressure ( in mb ) Visibility ( mi km ) Precip ( " mm )
12:53 am 00:53 Partly Cloudy 65 18.3 39 3.9 39 39 W 13 20 29.82 1010 10 16 0.00 0.00
1:53 am 01:53 Clear 65 18.3 42 5.6 43 43 W 8 13 29.81 1009 10 16 0.00 0.00
2:53 am 02:53 Mostly Cloudy 65 18.3 42 5.6 43 43 W 7 11 29.78 1008 10 16 0.00 0.00
3:53 am 03:53 Partly Cloudy 66 18.9 39 3.9 37 37 WSW 7 11 29.78 1008 10 16 0.00 0.00
4:53 am 04:53 Partly Cloudy 64 17.8 40 4.4 41 41 SE 7 11 29.78 1009 10 16 0.00 0.00
5:53 am 05:53 Mostly Cloudy 62 16.7 43 6.1 50 50 ESE 6 9 29.82 1010 10 16 0.00 0.00
6:53 am 06:53 Mostly Cloudy 66 18.9 36 2.2 33 33 W 14 22 29.86 1011 10 16 0.00 0.00
7:00 am 07:00 Mostly Cloudy 66 18.9 36 2.2 33 33 W 13 20 29.85 1011 10 16 0.00 0.00
7:53 am 07:53 Cloudy with Light Rain 63 17.2 41 5 45 45 W 17 28 29.90 1012 10 16 0.00 0.03
8:53 am 08:53 Cloudy with Rain 56 13.3 48 8.9 75 75 WSW 15 24 29.92 1013 7 11 0.02 0.51
9:53 am 09:53 Cloudy 58 14.4 50 10 75 75 SSW 12 19 29.89 1012 10 16 0.06 1.52
10:53 am 10:53 Mostly Sunny 61 16.1 48 8.9 63 63 SSW 18 30 29.85 1011 10 16 0.00 0.00
11:53 am 11:53 Sunny 61 16.1 50 10 67 67 SSE 17 28 29.86 1011 10 16 0.00 0.00
12:53 pm 12:53 Sunny 62 16.7 52 11.1 70 70 SSE 14 22 29.85 1011 10 16 0.00 0.00
1:53 pm 13:53 Sunny 65 18.3 52 11.1 63 63 SSE 18 30 29.84 1011 10 16 0.00 0.00
2:27 pm 14:27 Mostly Sunny 65 18.3 53 11.7 66 66 SSE 20 31 29.83 1010 10 16 0.00 0.00
2:53 pm 14:53 Sunny 65 18.3 51 10.6 61 61 SSE 17 28 29.82 1010 10 16 0.00 0.00
3:03 pm 15:03 Mostly Sunny 65 18.3 51 10.6 61 61 SSE 15 24 29.80 1009 10 16 0.00 0.00
3:53 pm 15:53 Sunny 67 19.4 50 10 55 55 SSE 16 26 29.78 1009 10 16 0.00 0.00
4:53 pm 16:53 Sunny 70 21.1 48 8.9 46 46 SSE 18 30 29.76 1008 10 16 0.00 0.00
5:53 pm 17:53 Sunny 67 19.4 52 11.1 59 59 SSE 29 46 29.75 1008 10 16 0.00 0.00
6:53 pm 18:53 Partly Cloudy 65 18.3 54 12.2 68 68 SE 21 33 29.75 1008 10 16 0.00 0.00
7:19 pm 19:19 Mostly Cloudy 63 17.2 53 11.7 70 70 SE 15 24 29.80 1009 10 16 0.00 0.00
7:29 pm 19:29 Partly Cloudy 63 17.2 53 11.7 70 70 ESE 14 22 29.80 1009 10 16 0.00 0.00
7:53 pm 19:53 Partly Cloudy 62 16.7 52 11.1 70 70 SE 20 31 29.77 1008 10 16 0.00 0.00
8:26 pm 20:26 Mostly Cloudy 59 15 49 9.4 69 69 N 21 33 29.85 1011 10 16 0.00 0.00
8:40 pm 20:40 Cloudy 56 13.3 47 8.3 72 72 NNE 14 22 29.88 1012 10 16 0.00 0.00
8:53 pm 20:53 Cloudy with Nearby Thunderstorms 55 12.8 47 8.3 74 74 NNE 21 33 29.81 1010 10 16 0.00 0.00
9:09 pm 21:09 Cloudy with Nearby Thunderstorms 50 10 46 7.8 86 86 N 22 35 29.97 1015 3 4 0.20 5.08
9:15 pm 21:15 Cloudy with Heavy Rain 49 9.4 46 7.8 90 90 NNE 18 30 29.97 1015 2 2 0.28 7.11
9:19 pm 21:19 Cloudy with Nearby Thunderstorms 49 9.4 46 7.8 90 90 NNE 22 35 30.00 1016 3 4 0.28 7.11
9:22 pm 21:22 Cloudy with Nearby Thunderstorms 48 8.9 46 7.8 93 93 NNE 21 33 30.00 1016 5 8 0.28 7.11
9:29 pm 21:29 Cloudy with Nearby Thunderstorms 47 8.3 46 7.8 97 97 NE 23 37 29.97 1015 10 16 0.28 7.11
9:40 pm 21:40 Cloudy 48 8.9 46 7.8 93 93 NE 23 37 30.00 1016 10 16 0.28 7.11
9:53 pm 21:53 Cloudy 47 8.3 46 7.8 97 97 ENE 23 37 29.91 1013 10 16 0.29 7.37
10:15 pm 22:15 Cloudy with Nearby Thunderstorms 47 8.3 45 7.2 93 93 ENE 22 35 29.97 1015 10 16 0.00 0.03
10:46 pm 22:46 Cloudy 48 8.9 45 7.2 89 89 NE 17 28 30.00 1016 10 16 0.00 0.03
10:53 pm 22:53 Cloudy 48 8.9 45 7.2 89 89 ENE 22 35 29.91 1013 10 16 0.00 0.03
11:02 pm 23:02 Cloudy 48 8.9 45 7.2 89 89 NE 23 37 29.97 1015 10 16 0.00 0.00
11:11 pm 23:11 Cloudy with Nearby Thunderstorms 48 8.9 45 7.2 89 89 NE 20 31 29.94 1014 10 16 0.00 0.00
11:38 pm 23:38 Cloudy with Nearby Thunderstorms 48 8.9 45 7.2 89 89 NNE 13 20 30.03 1017 10 16 0.00 0.03
11:49 pm 23:49 Cloudy with Light Rain 48 9 45 7 87 87 ENE 18 30 30.00 1016 10 16 0.00 0.03
11:50 pm 23:50 Cloudy with Light Rain 48 9 45 7 87 87 ENE 17 28 30.00 1016 10 16 0.00 0.03
11:53 pm 23:53 Cloudy with Light Rain 48 8.9 45 7.2 89 89 NE 16 26 29.93 1014 10 16 0.00 0.03

Powered by AerisWeather